TimeCST,TemperatureF,Dew PointF,Humidity,Sea Level PressureIn,VisibilityMPH,Wind Direction,Wind SpeedMPH,Gust SpeedMPH,PrecipitationIn,Events,Conditions,WindDirDegrees,DateUTC
12:53 AM,36.0,30.9,82,30.36,10.0,Calm,Calm,-,N/A,,Clear,0,2012-11-16 06:53:00
1:53 AM,35.1,30.0,82,30.35,10.0,NNE,3.5,-,N/A,,Clear,30,2012-11-16 07:53:00
2:53 AM,34.0,28.9,82,30.35,10.0,North,3.5,-,N/A,,Clear,10,2012-11-16 08:53:00
3:53 AM,34.0,28.9,82,30.36,10.0,NNE,3.5,-,N/A,,Clear,20,2012-11-16 09:53:00
4:53 AM,34.0,30.0,85,30.36,8.0,NE,4.6,-,N/A,,Clear,40,2012-11-16 10:53:00
6:53 AM,34.0,30.0,85,30.39,8.0,NNE,3.5,-,N/A,,Clear,30,2012-11-16 12:53:00
7:53 AM,37.9,33.1,83,30.42,9.0,NNE,4.6,-,N/A,,Clear,30,2012-11-16 13:53:00
8:53 AM,46.9,36.0,66,30.43,10.0,NE,6.9,-,N/A,,Clear,50,2012-11-16 14:53:00
9:53 AM,55.9,34.0,44,30.43,10.0,ENE,9.2,-,N/A,,Clear,60,2012-11-16 15:53:00
10:53 AM,59.0,30.0,33,30.43,10.0,ENE,9.2,-,N/A,,Clear,60,2012-11-16 16:53:00
11:53 AM,61.0,28.9,30,30.41,10.0,ENE,9.2,-,N/A,,Clear,60,2012-11-16 17:53:00
12:53 PM,62.1,28.9,29,30.38,10.0,NE,8.1,-,N/A,,Clear,40,2012-11-16 18:53:00
1:53 PM,63.0,30.0,29,30.35,10.0,North,6.9,-,N/A,,Clear,10,2012-11-16 19:53:00
2:53 PM,64.0,28.9,27,30.33,10.0,NE,4.6,-,N/A,,Clear,50,2012-11-16 20:53:00
3:53 PM,64.0,28.0,26,30.34,10.0,NNE,9.2,-,N/A,,Clear,30,2012-11-16 21:53:00
4:53 PM,61.0,28.0,29,30.33,10.0,NE,5.8,-,N/A,,Clear,50,2012-11-16 22:53:00
5:53 PM,55.9,28.0,34,30.34,10.0,Calm,Calm,-,N/A,,Clear,0,2012-11-16 23:53:00
6:53 PM,48.9,30.0,48,30.36,10.0,Calm,Calm,-,N/A,,Clear,0,2012-11-17 00:53:00
7:53 PM,45.0,30.0,56,30.37,10.0,Calm,Calm,-,N/A,,Clear,0,2012-11-17 01:53:00
8:53 PM,42.1,30.0,62,30.37,10.0,Calm,Calm,-,N/A,,Clear,0,2012-11-17 02:53:00
9:53 PM,39.9,30.0,68,30.39,10.0,Calm,Calm,-,N/A,,Clear,0,2012-11-17 03:53:00
10:53 PM,37.9,30.0,73,30.38,10.0,Calm,Calm,-,N/A,,Clear,0,2012-11-17 04:53:00
11:53 PM,36.0,30.0,79,30.38,10.0,Calm,Calm,-,N/A,,Clear,0,2012-11-17 05:53:00